This demonstration page uses our WeatherBlox Daily Observations layout. Learn more.

Left ArrowRight Arrow

Hourly Observations for August 3, 2019

Temp ( °F °C ) Dew Point ( °F °C ) Humidity (%) Winds ( mph kmh ) Pressure ( in mb ) Visibility ( mi km ) Precip ( " mm )
12:53 am 00:53 Clear 86 30 50 10 29 29 SSE 14 22 29.79 1009 10 16 0.00 0.00
1:53 am 01:53 Clear 84 28.9 52 11.1 33 33 S 13 20 29.84 1010 10 16 0.00 0.00
2:53 am 02:53 Clear 82 27.8 55 12.8 40 40 SSE 10 17 29.83 1010 10 16 0.00 0.00
3:53 am 03:53 Clear 81 27.2 56 13.3 42 42 SSE 10 17 29.82 1010 10 16 0.00 0.00
4:53 am 04:53 Clear 79 26.1 56 13.3 45 45 SSE 7 11 29.81 1010 10 16 0.00 0.00
5:53 am 05:53 Clear 78 25.6 56 13.3 47 47 NNW 12 19 29.84 1011 10 16 0.00 0.00
6:53 am 06:53 Clear 77 25 56 13.3 48 48 NNE 6 9 29.85 1011 10 16 0.00 0.00
7:53 am 07:53 Sunny 77 25 56 13.3 48 48 NE 3 6 29.86 1011 10 16 0.00 0.00
8:53 am 08:53 Sunny 81 27.2 56 13.3 42 42 ESE 8 13 29.85 1011 10 16 0.00 0.00
9:53 am 09:53 Sunny 85 29.4 57 13.9 39 39 VRB 7 11 29.85 1011 10 16 0.00 0.00
10:53 am 10:53 Sunny 89 31.7 56 13.3 33 33 Calm 29.85 1011 10 16 0.00 0.00
11:53 am 11:53 Sunny 94 34.4 55 12.8 27 27 VRB 5 7 29.84 1011 10 16 0.00 0.00
12:53 pm 12:53 Sunny 97 36.1 53 11.7 23 23 WNW 8 13 29.83 1010 10 16 0.00 0.00
1:53 pm 13:53 Sunny 100 37.8 52 11.1 20 20 VRB 3 6 29.81 1010 10 16 0.00 0.00
2:53 pm 14:53 Sunny 103 39.4 49 9.4 16 16 VRB 5 7 29.79 1009 10 16 0.00 0.00
3:53 pm 15:53 Mostly Sunny 104 40 44 6.7 13 13 VRB 6 9 29.75 1007 10 16 0.00 0.00
4:53 pm 16:53 Sunny 103 39.4 42 5.6 12 12 VRB 3 6 29.74 1007 10 16 0.00 0.00
5:53 pm 17:53 Sunny 102 38.9 45 7.2 14 14 SE 9 15 29.73 1007 10 16 0.00 0.00
6:53 pm 18:53 Sunny 103 39.4 44 6.7 13 13 SE 12 19 29.72 1007 10 16 0.00 0.00
7:53 pm 19:53 Partly Cloudy 99 37.2 49 9.4 18 18 NNW 15 24 29.74 1007 10 16 0.00 0.00
8:24 pm 20:24 Mostly Cloudy with Nearby Thunderstorms 98 36.7 48 8.9 18 18 N 30 48 29.68 1005 9 14 0.00 0.00
8:36 pm 20:36 Mostly Cloudy with Nearby Thunderstorms 85 29.4 63 17.2 48 48 N 26 43 29.75 1007 5 8 0.00 0.00
8:51 pm 20:51 Partly Cloudy 84 29 63 17 48 48 NNE 18 30 29.76 1008 10 16 0.00 0.00
8:53 pm 20:53 Partly Cloudy 85 29.4 62 16.7 46 46 NNE 22 35 29.81 1010 10 16 0.00 0.00
9:53 pm 21:53 Clear 86 30 60 15.6 42 42 NNE 16 26 29.82 1010 10 16 0.00 0.00
10:53 pm 22:53 Clear 86 30 59 15 40 40 N 12 19 29.85 1011 10 16 0.00 0.00
11:53 pm 23:53 Clear 86 30 58 14.4 39 39 NE 14 22 29.83 1010 10 16 0.00 0.00

Powered by AerisWeather